Powrót do katalogu

COSMOS 2251 DEB

AktywnyLEO
NORAD 33789·DEBRIS·🇷🇺 Russia

Wystrzelony Jun 16, 1993 z Plesetsk Cosmodrome

Loading…

Następne Przeloty (najbliższe 24 godziny)

TLE

ŚwieżeSource: Space-Track

Epoka: Sep 14, 2026, 22:32 UTC

1 33789U 93036AE  26257.93896130  .00000263  00000-0  18675-3 0  9993
2 33789  74.0657 338.4968 0239760  29.1988  83.9643 13.89112683889309

Śledź COSMOS 2251 DEB w czasie rzeczywistym z AllMySat

Download on the App Store